AVA9613 SKSP-SKCL

Flight info

Callsign AVA9613
Flight time 1h 42m
Altitude 33000
Route BIXOX2B BIXOX DCT MORLI UN420 BUSMO UW90 ASIKO ASIKO1C
Aircraft MD88/M-SDFGIRWY/S

Departure

Time 2026-05-08 18:25
Airport Gustavo Rojas Pinilla International Airport (SKSP)

Arrival

Time 2026-05-08 20:07
Airport Alfonso Bonilla Aragon International Airport (SKCL)
Time Latitude Longitude Altitude Speed Heading
2026-05-08 17:49 12.58655 -81.70312 14 ft 0 kts 148°
2026-05-08 18:15 12.58656 -81.70313 14 ft 2 kts 148°
2026-05-08 18:15 12.58678 -81.70327 16 ft 4 kts 148°
2026-05-08 18:15 12.58697 -81.70338 18 ft 4 kts 164°
2026-05-08 18:15 12.58715 -81.70337 17 ft 4 kts 219°
2026-05-08 18:16 12.58730 -81.70317 17 ft 2 kts 240°
2026-05-08 18:16 12.58731 -81.70315 17 ft 0 kts 240°
2026-05-08 18:18 12.58728 -81.70321 17 ft 4 kts 240°
2026-05-08 18:18 12.58714 -81.70376 15 ft 12 kts 283°
2026-05-08 18:18 12.58742 -81.70459 16 ft 12 kts 263°
2026-05-08 18:19 12.58703 -81.70530 16 ft 11 kts 240°
2026-05-08 18:19 12.58666 -81.70597 17 ft 10 kts 240°
2026-05-08 18:19 12.58634 -81.70653 19 ft 8 kts 239°
2026-05-08 18:19 12.58609 -81.70697 21 ft 6 kts 239°
2026-05-08 18:20 12.58573 -81.70755 25 ft 15 kts 238°
2026-05-08 18:20 12.58500 -81.70879 25 ft 24 kts 239°
2026-05-08 18:20 12.58418 -81.71021 26 ft 22 kts 239°
2026-05-08 18:20 12.58339 -81.71158 26 ft 23 kts 239°
2026-05-08 18:21 12.58286 -81.71250 25 ft 23 kts 239°
2026-05-08 18:21 12.58207 -81.71388 26 ft 23 kts 239°
2026-05-08 18:21 12.58126 -81.71529 26 ft 23 kts 239°
2026-05-08 18:21 12.58024 -81.71706 27 ft 21 kts 239°
2026-05-08 18:22 12.57951 -81.71834 28 ft 21 kts 240°
2026-05-08 18:22 12.57903 -81.71917 30 ft 20 kts 238°
2026-05-08 18:22 12.57808 -81.72015 31 ft 11 kts 248°
2026-05-08 18:22 12.57837 -81.72039 31 ft 3 kts 60°
2026-05-08 18:23 12.57844 -81.72019 31 ft 4 kts 57°
2026-05-08 18:23 12.57846 -81.72016 31 ft 0 kts 60°
2026-05-08 18:23 12.57846 -81.72015 31 ft 0 kts 60°
2026-05-08 18:24 12.57851 -81.72007 32 ft 12 kts 59°
2026-05-08 18:24 12.58006 -81.71739 27 ft 77 kts 59°
2026-05-08 18:24 12.58385 -81.71081 29 ft 135 kts 60°
2026-05-08 18:24 12.58912 -81.70110 219 ft 166 kts 63°
2026-05-08 18:25 12.59485 -81.69084 764 ft 169 kts 62°
2026-05-08 18:25 12.60062 -81.68037 1247 ft 169 kts 62°
2026-05-08 18:25 12.60640 -81.66983 1639 ft 164 kts 66°
2026-05-08 18:25 12.60967 -81.65852 1667 ft 183 kts 88°
2026-05-08 18:26 12.60788 -81.64501 1965 ft 188 kts 107°
2026-05-08 18:26 12.60238 -81.63293 2535 ft 199 kts 124°
2026-05-08 18:26 12.59178 -81.62292 3118 ft 212 kts 147°
2026-05-08 18:26 12.57752 -81.61737 3672 ft 231 kts 167°
2026-05-08 18:27 12.56097 -81.61612 4212 ft 247 kts 176°
2026-05-08 18:27 12.54932 -81.61616 4565 ft 258 kts 178°
2026-05-08 18:27 12.52468 -81.61694 5223 ft 276 kts 180°
2026-05-08 18:27 12.50536 -81.61808 5724 ft 280 kts 180°
2026-05-08 18:28 12.48573 -81.61949 6210 ft 283 kts 180°
2026-05-08 18:28 12.46595 -81.62090 6687 ft 287 kts 181°
2026-05-08 18:28 12.44601 -81.62227 7129 ft 288 kts 181°
2026-05-08 18:28 12.42587 -81.62338 7601 ft 290 kts 175°
2026-05-08 18:29 12.40649 -81.61897 8077 ft 286 kts 151°
2026-05-08 18:29 12.38908 -81.60913 8568 ft 286 kts 146°
2026-05-08 18:29 12.37192 -81.59864 9058 ft 289 kts 146°
2026-05-08 18:29 12.35463 -81.58809 9552 ft 290 kts 146°
2026-05-08 18:30 12.33729 -81.57737 10023 ft 293 kts 146°
2026-05-08 18:30 12.31969 -81.56647 10479 ft 298 kts 146°
2026-05-08 18:30 12.30167 -81.55539 10870 ft 308 kts 146°
2026-05-08 18:30 12.28294 -81.54402 11264 ft 318 kts 147°
2026-05-08 18:31 12.26355 -81.53238 11671 ft 328 kts 147°
2026-05-08 18:31 12.24382 -81.52070 12051 ft 337 kts 147°
2026-05-08 18:31 12.22317 -81.50857 12447 ft 345 kts 148°
2026-05-08 18:31 12.20204 -81.49623 12854 ft 354 kts 148°
2026-05-08 18:32 12.18037 -81.48358 13252 ft 362 kts 148°
2026-05-08 18:32 12.15819 -81.47062 13669 ft 371 kts 148°
2026-05-08 18:32 12.13578 -81.45752 14036 ft 380 kts 148°
2026-05-08 18:32 12.11260 -81.44396 14402 ft 388 kts 148°
2026-05-08 18:33 12.08892 -81.43008 14773 ft 396 kts 148°
2026-05-08 18:33 12.06470 -81.41589 15151 ft 404 kts 148°
2026-05-08 18:33 12.04004 -81.40145 15515 ft 412 kts 148°
2026-05-08 18:33 12.01505 -81.38682 15901 ft 417 kts 148°
2026-05-08 18:34 11.98967 -81.37197 16285 ft 422 kts 148°
2026-05-08 18:34 11.96412 -81.35701 16678 ft 425 kts 148°
2026-05-08 18:34 11.93829 -81.34190 17062 ft 428 kts 148°
2026-05-08 18:34 11.91229 -81.32667 17464 ft 431 kts 148°
2026-05-08 18:35 11.88613 -81.31133 17870 ft 434 kts 148°
2026-05-08 18:35 11.86011 -81.29612 18260 ft 438 kts 148°
2026-05-08 18:35 11.83361 -81.28063 18613 ft 440 kts 148°
2026-05-08 18:35 11.80698 -81.26508 18964 ft 441 kts 148°
2026-05-08 18:36 11.78032 -81.24950 19319 ft 442 kts 148°
2026-05-08 18:36 11.75364 -81.23389 19678 ft 444 kts 148°
2026-05-08 18:36 11.72678 -81.21819 20044 ft 446 kts 148°
2026-05-08 18:36 11.69977 -81.20239 20414 ft 448 kts 148°
2026-05-08 18:37 11.67274 -81.18658 20791 ft 449 kts 148°
2026-05-08 18:37 11.64553 -81.17067 21174 ft 451 kts 147°
2026-05-08 18:37 11.61826 -81.15471 21559 ft 453 kts 147°
2026-05-08 18:37 11.59088 -81.13870 21949 ft 455 kts 147°
2026-05-08 18:38 11.56329 -81.12257 22347 ft 456 kts 147°
2026-05-08 18:38 11.53572 -81.10652 22756 ft 458 kts 147°
2026-05-08 18:38 11.50790 -81.09047 23166 ft 458 kts 147°
2026-05-08 18:38 11.48008 -81.07448 23554 ft 459 kts 147°
2026-05-08 18:39 11.45258 -81.05866 23894 ft 459 kts 147°
2026-05-08 18:39 11.42476 -81.04261 24231 ft 459 kts 147°
2026-05-08 18:39 11.39699 -81.02656 24589 ft 459 kts 147°
2026-05-08 18:39 11.36916 -81.01047 24942 ft 459 kts 148°
2026-05-08 18:40 11.34139 -80.99442 25306 ft 459 kts 148°
2026-05-08 18:40 11.31352 -80.97832 25629 ft 460 kts 148°
2026-05-08 18:40 11.28565 -80.96223 25928 ft 461 kts 148°
2026-05-08 18:40 11.25797 -80.94626 26226 ft 463 kts 148°
2026-05-08 18:41 11.23000 -80.93013 26530 ft 464 kts 148°
2026-05-08 18:41 11.20184 -80.91389 26840 ft 465 kts 148°
2026-05-08 18:41 11.17368 -80.89766 27146 ft 465 kts 148°
2026-05-08 18:41 11.14540 -80.88139 27467 ft 466 kts 148°
2026-05-08 18:42 11.11721 -80.86517 27782 ft 467 kts 148°
2026-05-08 18:42 11.08893 -80.84890 28108 ft 467 kts 148°
2026-05-08 18:42 11.06057 -80.83257 28427 ft 467 kts 149°
2026-05-08 18:42 11.03222 -80.81625 28766 ft 467 kts 149°
2026-05-08 18:43 11.00397 -80.79999 29106 ft 467 kts 149°
2026-05-08 18:43 10.97567 -80.78370 29452 ft 467 kts 149°
2026-05-08 18:43 10.94739 -80.76743 29788 ft 467 kts 149°
2026-05-08 18:43 10.91908 -80.75114 30104 ft 466 kts 149°
2026-05-08 18:44 10.89083 -80.73492 30367 ft 466 kts 149°
2026-05-08 18:44 10.86258 -80.71867 30594 ft 467 kts 149°
2026-05-08 18:44 10.83423 -80.70240 30826 ft 468 kts 149°
2026-05-08 18:44 10.80623 -80.68631 31043 ft 469 kts 149°
2026-05-08 18:45 10.77777 -80.66993 31229 ft 471 kts 149°
2026-05-08 18:45 10.74919 -80.65351 31450 ft 471 kts 149°
2026-05-08 18:45 10.72068 -80.63709 31660 ft 471 kts 149°
2026-05-08 18:45 10.69213 -80.62069 31877 ft 470 kts 149°
2026-05-08 18:46 10.66361 -80.60447 32087 ft 469 kts 149°
2026-05-08 18:46 10.63499 -80.58843 32286 ft 469 kts 150°
2026-05-08 18:46 10.60642 -80.57257 32481 ft 468 kts 150°
2026-05-08 18:46 10.57789 -80.55674 32673 ft 467 kts 150°
2026-05-08 18:47 10.54931 -80.54082 32786 ft 469 kts 150°
2026-05-08 18:47 10.52060 -80.52478 32843 ft 472 kts 151°
2026-05-08 18:47 10.46315 -80.49264 32881 ft 471 kts 150°
2026-05-08 18:48 10.40585 -80.46065 32885 ft 469 kts 150°
2026-05-08 18:48 10.34925 -80.42904 32885 ft 467 kts 150°
2026-05-08 18:49 10.29246 -80.39722 32886 ft 465 kts 150°
2026-05-08 18:49 10.23558 -80.36548 32887 ft 465 kts 150°
2026-05-08 18:50 10.17891 -80.33392 32888 ft 465 kts 150°
2026-05-08 18:50 10.12204 -80.30222 32882 ft 466 kts 150°
2026-05-08 18:51 10.06579 -80.27085 32882 ft 466 kts 150°
2026-05-08 18:51 10.00954 -80.23952 32881 ft 461 kts 150°
2026-05-08 18:52 9.95344 -80.20828 32879 ft 459 kts 150°
2026-05-08 18:52 9.89739 -80.17706 32882 ft 460 kts 150°
2026-05-08 18:53 9.84114 -80.14579 32880 ft 463 kts 150°
2026-05-08 18:53 9.78463 -80.11435 32880 ft 463 kts 150°
2026-05-08 18:54 9.72818 -80.08295 32879 ft 463 kts 150°
2026-05-08 18:54 9.67215 -80.05184 32879 ft 462 kts 150°
2026-05-08 18:55 9.58797 -80.00514 32878 ft 461 kts 150°
2026-05-08 18:56 9.53172 -79.97385 32877 ft 461 kts 150°
2026-05-08 18:56 9.47547 -79.94263 32878 ft 461 kts 150°
2026-05-08 18:57 9.41915 -79.91144 32877 ft 461 kts 150°
2026-05-08 18:57 9.36283 -79.88029 32875 ft 461 kts 149°
2026-05-08 18:58 9.30654 -79.84897 32870 ft 461 kts 150°
2026-05-08 18:58 9.25016 -79.81767 32873 ft 462 kts 150°
2026-05-08 18:59 9.19402 -79.78666 32867 ft 463 kts 150°
2026-05-08 18:59 9.13766 -79.75557 32867 ft 464 kts 150°
2026-05-08 19:00 9.09018 -79.72933 32862 ft 464 kts 150°
2026-05-08 19:00 9.02442 -79.69289 32858 ft 464 kts 150°
2026-05-08 19:01 8.96778 -79.66151 32831 ft 463 kts 150°
2026-05-08 19:01 8.91115 -79.63019 32832 ft 465 kts 151°
2026-05-08 19:02 8.85425 -79.59878 32803 ft 466 kts 151°
2026-05-08 19:02 8.79757 -79.56746 32807 ft 466 kts 151°
2026-05-08 19:03 8.74122 -79.53528 32816 ft 465 kts 149°
2026-05-08 19:03 8.68542 -79.50206 32825 ft 465 kts 149°
2026-05-08 19:04 8.62952 -79.46883 32835 ft 465 kts 149°
2026-05-08 19:04 8.57392 -79.43605 32843 ft 465 kts 149°
2026-05-08 19:05 8.51762 -79.40306 32843 ft 468 kts 149°
2026-05-08 19:05 8.46132 -79.36996 32841 ft 468 kts 149°
2026-05-08 19:06 8.40501 -79.33681 32838 ft 468 kts 149°
2026-05-08 19:06 8.34880 -79.30379 32839 ft 467 kts 149°
2026-05-08 19:07 8.29248 -79.27072 32841 ft 467 kts 149°
2026-05-08 19:07 8.23627 -79.23772 32840 ft 467 kts 149°
2026-05-08 19:08 8.18045 -79.20495 32840 ft 468 kts 149°
2026-05-08 19:08 8.12415 -79.17189 32841 ft 468 kts 149°
2026-05-08 19:09 8.06776 -79.13882 32840 ft 468 kts 149°
2026-05-08 19:09 8.01128 -79.10571 32840 ft 468 kts 149°
2026-05-08 19:10 7.95531 -79.07292 32840 ft 468 kts 149°
2026-05-08 19:10 7.89900 -79.03986 32843 ft 468 kts 149°
2026-05-08 19:11 7.84284 -79.00697 32837 ft 466 kts 149°
2026-05-08 19:11 7.78663 -78.97403 32834 ft 467 kts 150°
2026-05-08 19:12 7.73989 -78.94669 32833 ft 467 kts 150°
2026-05-08 19:12 7.68359 -78.91378 32835 ft 468 kts 150°
2026-05-08 19:13 7.62722 -78.88080 32839 ft 468 kts 150°
2026-05-08 19:13 7.57095 -78.84788 32977 ft 464 kts 150°
2026-05-08 19:13 7.54312 -78.83158 33167 ft 463 kts 150°
2026-05-08 19:14 7.51532 -78.81529 33372 ft 462 kts 150°
2026-05-08 19:14 7.48758 -78.79904 33575 ft 460 kts 150°
2026-05-08 19:14 7.46002 -78.78265 33776 ft 459 kts 150°
2026-05-08 19:14 7.43271 -78.76615 33955 ft 456 kts 149°
2026-05-08 19:15 7.40573 -78.74980 34139 ft 451 kts 148°
2026-05-08 19:15 7.37893 -78.73341 34316 ft 450 kts 148°
2026-05-08 19:15 7.35255 -78.71728 34491 ft 448 kts 148°
2026-05-08 19:15 7.32592 -78.70100 34662 ft 447 kts 149°
2026-05-08 19:16 7.29926 -78.68477 34755 ft 448 kts 149°
2026-05-08 19:16 7.24551 -78.65210 34821 ft 453 kts 149°
2026-05-08 19:17 7.19120 -78.61928 34843 ft 457 kts 149°
2026-05-08 19:17 7.13662 -78.58628 34843 ft 456 kts 149°
2026-05-08 19:18 7.08260 -78.55358 34842 ft 455 kts 149°
2026-05-08 19:18 7.02837 -78.52075 34842 ft 454 kts 149°
2026-05-08 19:19 6.97428 -78.48802 34843 ft 453 kts 149°
2026-05-08 19:19 6.92040 -78.45541 34844 ft 450 kts 149°
2026-05-08 19:20 6.86708 -78.42315 34844 ft 445 kts 149°
2026-05-08 19:20 6.81364 -78.39084 34849 ft 451 kts 149°
2026-05-08 19:21 6.75949 -78.35810 34848 ft 456 kts 149°
2026-05-08 19:21 6.70510 -78.32526 34844 ft 456 kts 150°
2026-05-08 19:22 6.65038 -78.29315 34841 ft 454 kts 150°
2026-05-08 19:22 6.59571 -78.26134 34841 ft 452 kts 150°
2026-05-08 19:23 6.54172 -78.22979 34842 ft 452 kts 150°
2026-05-08 19:23 6.48739 -78.19793 34843 ft 452 kts 150°
2026-05-08 19:24 6.43291 -78.16597 34843 ft 452 kts 150°
2026-05-08 19:24 6.37864 -78.13416 34843 ft 452 kts 150°
2026-05-08 19:25 6.32418 -78.10227 34843 ft 452 kts 150°
2026-05-08 19:25 6.26995 -78.07058 34842 ft 450 kts 150°
2026-05-08 19:26 6.21621 -78.03914 34843 ft 450 kts 150°
2026-05-08 19:26 6.16209 -78.00746 34843 ft 449 kts 150°
2026-05-08 19:27 6.10809 -77.97588 34840 ft 450 kts 150°
2026-05-08 19:27 6.05395 -77.94422 34841 ft 451 kts 150°
2026-05-08 19:28 5.99955 -77.91243 34840 ft 452 kts 150°
2026-05-08 19:28 5.94513 -77.88065 34841 ft 453 kts 149°
2026-05-08 19:29 5.89081 -77.84895 34846 ft 454 kts 149°
2026-05-08 19:29 5.83601 -77.81695 34846 ft 455 kts 149°
2026-05-08 19:30 5.78138 -77.78505 34853 ft 454 kts 149°
2026-05-08 19:30 5.72672 -77.75314 34853 ft 454 kts 150°
2026-05-08 19:31 5.67203 -77.72123 34851 ft 454 kts 149°
2026-05-08 19:31 5.61770 -77.68953 34851 ft 454 kts 150°
2026-05-08 19:32 5.56294 -77.65763 34864 ft 454 kts 150°
2026-05-08 19:32 5.50838 -77.62584 34862 ft 452 kts 150°
2026-05-08 19:33 5.45402 -77.59417 34860 ft 452 kts 150°
2026-05-08 19:33 5.39954 -77.56240 34863 ft 454 kts 150°
2026-05-08 19:34 5.34482 -77.53054 34862 ft 455 kts 150°
2026-05-08 19:34 5.29005 -77.49866 34876 ft 455 kts 150°
2026-05-08 19:35 5.23523 -77.46673 34873 ft 455 kts 150°
2026-05-08 19:35 5.18047 -77.43488 34871 ft 456 kts 150°
2026-05-08 19:36 5.12587 -77.40313 34871 ft 457 kts 150°
2026-05-08 19:36 5.07143 -77.37145 34885 ft 458 kts 150°
2026-05-08 19:37 5.01629 -77.33937 34879 ft 458 kts 150°
2026-05-08 19:37 4.96112 -77.30728 34882 ft 458 kts 150°
2026-05-08 19:38 4.90597 -77.27522 34876 ft 458 kts 150°
2026-05-08 19:38 4.85123 -77.24343 34875 ft 457 kts 150°
2026-05-08 19:39 4.79615 -77.21134 34890 ft 457 kts 150°
2026-05-08 19:39 4.74129 -77.17949 34883 ft 455 kts 150°
2026-05-08 19:40 4.68632 -77.14763 34884 ft 455 kts 150°
2026-05-08 19:40 4.63315 -77.11677 34881 ft 455 kts 150°
2026-05-08 19:41 4.57830 -77.08491 34886 ft 455 kts 150°
2026-05-08 19:41 4.52380 -77.05327 34896 ft 456 kts 150°
2026-05-08 19:42 4.47001 -77.02207 34895 ft 456 kts 150°
2026-05-08 19:42 4.41532 -76.99032 34896 ft 456 kts 150°
2026-05-08 19:43 4.36058 -76.95855 34891 ft 454 kts 150°
2026-05-08 19:43 4.30595 -76.92685 34734 ft 458 kts 150°
2026-05-08 19:43 4.27796 -76.91061 34219 ft 466 kts 151°
2026-05-08 19:44 4.25031 -76.89456 33471 ft 465 kts 152°
2026-05-08 19:44 4.22122 -76.88014 32544 ft 453 kts 158°
2026-05-08 19:44 4.19261 -76.86858 31766 ft 435 kts 160°
2026-05-08 19:44 4.16520 -76.85817 31055 ft 418 kts 160°
2026-05-08 19:45 4.13854 -76.84809 30402 ft 401 kts 160°
2026-05-08 19:45 4.11288 -76.83824 29722 ft 387 kts 160°
2026-05-08 19:45 4.08805 -76.82859 29091 ft 382 kts 159°
2026-05-08 19:45 4.06331 -76.81881 28508 ft 381 kts 159°
2026-05-08 19:46 4.03869 -76.80900 27976 ft 380 kts 159°
2026-05-08 19:46 4.01412 -76.79917 27446 ft 378 kts 159°
2026-05-08 19:46 3.96563 -76.77973 26436 ft 377 kts 159°
2026-05-08 19:47 3.94118 -76.76993 25875 ft 378 kts 158°
2026-05-08 19:47 3.91676 -76.76013 25292 ft 379 kts 158°
2026-05-08 19:47 3.89216 -76.75029 24725 ft 381 kts 158°
2026-05-08 19:47 3.86744 -76.74040 24130 ft 383 kts 158°
2026-05-08 19:48 3.84259 -76.73046 23556 ft 385 kts 158°
2026-05-08 19:48 3.81770 -76.72053 22893 ft 385 kts 158°
2026-05-08 19:48 3.79283 -76.71058 22271 ft 385 kts 158°
2026-05-08 19:48 3.76787 -76.70056 21693 ft 385 kts 158°
2026-05-08 19:49 3.74308 -76.69064 21135 ft 383 kts 158°
2026-05-08 19:49 3.71841 -76.68076 20569 ft 382 kts 158°
2026-05-08 19:49 3.69371 -76.67089 20014 ft 381 kts 158°
2026-05-08 19:49 3.66907 -76.66105 19458 ft 381 kts 158°
2026-05-08 19:50 3.64440 -76.65122 18890 ft 381 kts 158°
2026-05-08 19:50 3.61982 -76.64142 18337 ft 381 kts 158°
2026-05-08 19:50 3.59519 -76.63161 17702 ft 381 kts 157°
2026-05-08 19:50 3.57061 -76.62181 17100 ft 379 kts 157°
2026-05-08 19:51 3.54613 -76.61204 16517 ft 374 kts 157°
2026-05-08 19:51 3.52247 -76.60265 15945 ft 358 kts 157°
2026-05-08 19:51 3.49907 -76.59550 15361 ft 347 kts 168°
2026-05-08 19:51 3.47579 -76.59177 14754 ft 342 kts 171°
2026-05-08 19:52 3.45222 -76.58886 14145 ft 341 kts 171°
2026-05-08 19:52 3.42871 -76.58596 13460 ft 339 kts 171°
2026-05-08 19:52 3.40573 -76.58310 12971 ft 323 kts 171°
2026-05-08 19:52 3.38413 -76.58030 12626 ft 302 kts 170°
2026-05-08 19:53 3.36385 -76.57751 12243 ft 287 kts 169°
2026-05-08 19:53 3.34442 -76.57480 11847 ft 281 kts 171°
2026-05-08 19:53 3.32508 -76.57195 11557 ft 280 kts 171°
2026-05-08 19:53 3.30587 -76.56914 11295 ft 277 kts 171°
2026-05-08 19:54 3.28730 -76.56459 10941 ft 277 kts 152°
2026-05-08 19:54 3.27273 -76.55237 10615 ft 275 kts 122°
2026-05-08 19:54 3.26613 -76.53471 10304 ft 273 kts 96°
2026-05-08 19:54 3.26514 -76.51586 10077 ft 269 kts 91°
2026-05-08 19:55 3.26493 -76.49741 9752 ft 261 kts 90°
2026-05-08 19:55 3.26494 -76.47963 9401 ft 258 kts 89°
2026-05-08 19:55 3.26531 -76.46175 9082 ft 256 kts 88°
2026-05-08 19:55 3.26787 -76.44436 8717 ft 251 kts 65°
2026-05-08 19:56 3.27826 -76.43101 8320 ft 241 kts 32°
2026-05-08 19:56 3.29348 -76.42498 8045 ft 233 kts 13°
2026-05-08 19:56 3.30914 -76.42157 7915 ft 228 kts 11°
2026-05-08 19:56 3.32458 -76.41861 7773 ft 223 kts
2026-05-08 19:57 3.33969 -76.41611 7665 ft 218 kts
2026-05-08 19:57 3.35466 -76.41385 7509 ft 217 kts
2026-05-08 19:57 3.36957 -76.41159 7414 ft 216 kts
2026-05-08 19:57 3.38346 -76.40624 7282 ft 218 kts 41°
2026-05-08 19:58 3.39150 -76.39365 7131 ft 219 kts 78°
2026-05-08 19:58 3.39053 -76.37858 6878 ft 221 kts 114°
2026-05-08 19:58 3.38112 -76.36675 6703 ft 222 kts 149°
2026-05-08 19:58 3.36681 -76.36231 6527 ft 220 kts 184°
2026-05-08 19:59 3.35148 -76.36482 6594 ft 231 kts 194°
2026-05-08 19:59 3.33480 -76.36856 6553 ft 263 kts 193°
2026-05-08 19:59 3.31587 -76.37216 6442 ft 280 kts 191°
2026-05-08 19:59 3.29762 -76.37588 6385 ft 256 kts 202°
2026-05-08 20:00 3.28390 -76.38573 6277 ft 237 kts 236°
2026-05-08 20:00 3.27836 -76.40053 6163 ft 222 kts 271°
2026-05-08 20:00 3.28207 -76.41441 6064 ft 197 kts 308°
2026-05-08 20:00 3.29226 -76.42185 5944 ft 178 kts 348°
2026-05-08 20:01 3.30380 -76.42243 5953 ft 148 kts
2026-05-08 20:01 3.31345 -76.42140 5670 ft 148 kts
2026-05-08 20:01 3.32480 -76.41929 5607 ft 161 kts 10°
2026-05-08 20:01 3.33422 -76.41759 5796 ft 129 kts
2026-05-08 20:02 3.34438 -76.41593 5354 ft 152 kts
2026-05-08 20:02 3.35385 -76.41429 5645 ft 136 kts
2026-05-08 20:02 3.36018 -76.41320 5843 ft 143 kts
2026-05-08 20:02 3.37010 -76.41166 6325 ft 145 kts
2026-05-08 20:03 3.38041 -76.41031 6675 ft 156 kts
2026-05-08 20:03 3.39039 -76.40841 7018 ft 133 kts
2026-05-08 20:03 3.39989 -76.40676 6731 ft 150 kts
2026-05-08 20:03 3.41057 -76.40487 6472 ft 159 kts
2026-05-08 20:04 3.42162 -76.40286 6121 ft 165 kts
2026-05-08 20:04 3.43310 -76.40070 5606 ft 169 kts
2026-05-08 20:04 3.44451 -76.39884 5076 ft 166 kts
2026-05-08 20:04 3.45544 -76.39698 4713 ft 153 kts
2026-05-08 20:05 3.46565 -76.39523 4321 ft 144 kts
2026-05-08 20:05 3.47492 -76.39347 4084 ft 131 kts
2026-05-08 20:05 3.48382 -76.39183 3896 ft 127 kts
2026-05-08 20:05 3.49261 -76.39039 3803 ft 135 kts
2026-05-08 20:06 3.50206 -76.38885 3785 ft 135 kts
2026-05-08 20:06 3.51124 -76.38728 3594 ft 132 kts
2026-05-08 20:06 3.52017 -76.38574 3388 ft 126 kts
2026-05-08 20:06 3.52856 -76.38446 3213 ft 124 kts 14°
2026-05-08 20:07 3.53694 -76.38279 3165 ft 111 kts
2026-05-08 20:07 3.54246 -76.38184 3166 ft 52 kts
2026-05-08 20:07 3.54540 -76.38133 3167 ft 27 kts
2026-05-08 20:07 3.54596 -76.38161 3165 ft 5 kts 281°
2026-05-08 20:08 3.54606 -76.38214 3165 ft 10 kts 281°
2026-05-08 20:08 3.54611 -76.38274 3166 ft 3 kts 246°
2026-05-08 20:08 3.54576 -76.38286 3166 ft 12 kts 191°
2026-05-08 20:08 3.54461 -76.38308 3166 ft 18 kts 191°
2026-05-08 20:09 3.54336 -76.38331 3165 ft 18 kts 190°
2026-05-08 20:09 3.54211 -76.38354 3167 ft 18 kts 191°
2026-05-08 20:09 3.54087 -76.38386 3164 ft 18 kts 206°
2026-05-08 20:09 3.53993 -76.38460 3164 ft 17 kts 219°
2026-05-08 20:10 3.53904 -76.38534 3163 ft 17 kts 219°
2026-05-08 20:10 3.53822 -76.38613 3163 ft 15 kts 242°
2026-05-08 20:10 3.53753 -76.38691 3163 ft 15 kts 213°
2026-05-08 20:10 3.53707 -76.38690 3163 ft 0 kts 141°